This is the latest recevied weather packets stored in our database for station/object W7TTE. If no packets are shown the sender has not sent any weather packets the latest 10 day(s).
| Time | Temp. | Humidity | Pressure | Rain* | Wind** | Luminosity | Snow |
|---|---|---|---|---|---|---|---|
| 1778000918 | 21.67° C | 37% | 1014.3 hPa | 0 mm | - | 732 W/m² | - |
| 1778000615 | 21.67° C | 39% | 1014.3 hPa | 0 mm | - | 337 W/m² | - |
| 1778000310 | 22.22° C | 37% | 1014.2 hPa | 0 mm | - | 358 W/m² | - |
| 1778000006 | 21.67° C | 37% | 1014.3 hPa | 0 mm | - | 401 W/m² | - |
| 1777999702 | 21.67° C | 38% | 1014.3 hPa | 0 mm | - | 671 W/m² | - |
| 1777999399 | 21.67° C | 39% | 1014.2 hPa | 0 mm | - | 312 W/m² | - |
| 1777999097 | 21.67° C | 39% | 1014.3 hPa | 0 mm | - | 184 W/m² | - |
| 1777998796 | 21.67° C | 41% | 1014.4 hPa | 0 mm | - | 277 W/m² | - |
| 1777998494 | 21.11° C | 40% | 1014.5 hPa | 0 mm | - | 566 W/m² | - |
| 1777998190 | 20.56° C | 41% | 1014.4 hPa | 0 mm | - | 167 W/m² | - |
| 1777997887 | 21.11° C | 41% | 1014.4 hPa | 0 mm | - | 192 W/m² | - |
| 1777997584 | 20° C | 42% | 1014.4 hPa | 0 mm | - | 558 W/m² | - |
| 1777997281 | 20° C | 41% | 1014.5 hPa | 0 mm | - | 185 W/m² | - |
| 1777996979 | 20° C | 41% | 1014.4 hPa | 0 mm | - | 172 W/m² | - |
| 1777996675 | 20° C | 42% | 1014.4 hPa | 0 mm | - | 192 W/m² | - |
| 1777996371 | 20° C | 41% | 1014.4 hPa | 0 mm | - | 156 W/m² | - |
| 1777996068 | 20° C | 41% | 1014.6 hPa | 0 mm | - | 161 W/m² | - |
| 1777995765 | 20° C | 42% | 1014.3 hPa | 0 mm | - | 224 W/m² | - |
| 1777995461 | 19.44° C | 43% | 1014.2 hPa | 0 mm | - | 151 W/m² | - |
| 1777995159 | 19.44° C | 44% | 1014.5 hPa | 0 mm | - | 120 W/m² | - |
| 1777994856 | 19.44° C | 45% | 1014.3 hPa | 0 mm | - | 123 W/m² | - |
| 1777994552 | 19.44° C | 44% | 1014.4 hPa | 0 mm | - | 164 W/m² | - |
| 1777994252 | 19.44° C | 45% | 1014.6 hPa | 0 mm | - | 112 W/m² | - |
| 1777993950 | 19.44° C | 44% | 1014.6 hPa | 0 mm | - | 133 W/m² | - |
| 1777993646 | 19.44° C | 44% | 1014.4 hPa | 0 mm | - | 120 W/m² | - |
* Rain latest hour (hover to see other rain measurements)
** Current wind speed in m/s (hover to see current wind gust speed)